To NAV CANADA Home Page Login to a new session Search on AWWS site Feedback and Comments Disclaimer Vers la page française équivalente Tips FAQ What's new on the site To the Forecasts and Observations / NOTAM section To "File a Flight Plan" website Publications and other links Update of the User's profile FIC Telephone Numbers My Weather Data Folder Route Weather Data Regional Weather Data Local Weather Data To the Forecasts and Observations / NOTAM section
Request Generated 03/23/2017 at 00:15:13 UTC . Weather information available at that time is displayed.

METAR/TAF

QUAQTAQ/QC    

LWIS CYHA 230000Z AUTO 33030G37KT M16/M19 A2963=
LWIS CYHA 222300Z AUTO 32027G33KT M16/M19 A2961=
LWIS CYHA 222200Z AUTO 32027G39KT M16/M19 A2958=

*** REMARK        : Forecast period has ended; this was the last TAF issued
*** REMARQUE : La période de prévision est échue; ceci était le dernier TAF qui a été émis
TAF AMD CYHA 221723Z 2217/2221 33020G30KT 1/4SM SN BLSN BKN020 OVC200
TEMPO 2217/2221 2SM BLSN SCT020 BKN200
RMK NXT FCST WILL BE ISSUED AT 231345Z=
Your time UTC time
Weather data provided by Environment Canada and NAV CANADA